Year,Month,Day,Hour,Minute,Value (Times are PST for temperature in C)
2020,10,22,00,00,5.70
2020,10,22,00,01,5.70
2020,10,22,00,02,5.60
2020,10,22,00,03,5.60
2020,10,22,00,04,5.50
2020,10,22,00,05,5.50
2020,10,22,00,06,5.40
2020,10,22,00,07,5.40
2020,10,22,00,08,5.30
2020,10,22,00,09,5.30
2020,10,22,00,10,5.30
2020,10,22,00,11,5.30
2020,10,22,00,12,5.30
2020,10,22,00,13,5.30
2020,10,22,00,14,5.30
2020,10,22,00,15,5.20
2020,10,22,00,16,5.20
2020,10,22,00,17,5.20
2020,10,22,00,18,5.20
2020,10,22,00,19,5.10
2020,10,22,00,20,5.00
2020,10,22,00,21,4.90
2020,10,22,00,22,4.90
2020,10,22,00,23,4.90
2020,10,22,00,24,4.80
2020,10,22,00,25,4.80
2020,10,22,00,26,4.80
2020,10,22,00,27,4.80
2020,10,22,00,28,4.70
2020,10,22,00,29,4.70
2020,10,22,00,30,4.70
2020,10,22,00,31,4.70
2020,10,22,00,32,4.70
2020,10,22,00,33,4.70
2020,10,22,00,34,4.70
2020,10,22,00,35,4.80
2020,10,22,00,36,4.80
2020,10,22,00,37,4.80
2020,10,22,00,38,4.80
2020,10,22,00,39,4.90
2020,10,22,00,40,4.90
2020,10,22,00,41,5.00
2020,10,22,00,42,5.00
2020,10,22,00,43,5.00
2020,10,22,00,44,5.00
2020,10,22,00,45,5.00
2020,10,22,00,46,5.10
2020,10,22,00,47,5.10
2020,10,22,00,48,5.10
2020,10,22,00,49,5.20
2020,10,22,00,50,5.20
2020,10,22,00,51,5.20
2020,10,22,00,52,5.20
2020,10,22,00,53,5.20
2020,10,22,00,54,5.20
2020,10,22,00,55,5.20
2020,10,22,00,56,5.20
2020,10,22,00,57,5.20
2020,10,22,00,58,5.20
2020,10,22,00,59,5.20
2020,10,22,01,00,5.20
2020,10,22,01,01,5.20
2020,10,22,01,02,5.20
2020,10,22,01,03,5.20
2020,10,22,01,04,5.20
2020,10,22,01,05,5.30
2020,10,22,01,06,5.30
2020,10,22,01,07,5.30
2020,10,22,01,08,5.30
2020,10,22,01,09,5.30
2020,10,22,01,10,5.30
2020,10,22,01,11,5.40
2020,10,22,01,12,5.40
2020,10,22,01,13,5.40
2020,10,22,01,14,5.40
2020,10,22,01,15,5.40
2020,10,22,01,16,5.50
2020,10,22,01,17,5.50
2020,10,22,01,18,5.60
2020,10,22,01,19,5.60
2020,10,22,01,20,5.60
2020,10,22,01,21,5.60
2020,10,22,01,22,5.60
2020,10,22,01,23,5.60
2020,10,22,01,24,5.60
2020,10,22,01,25,5.60
2020,10,22,01,26,5.60
2020,10,22,01,27,5.60
2020,10,22,01,28,5.60
2020,10,22,01,29,5.60
2020,10,22,01,30,5.50
2020,10,22,01,31,5.50
2020,10,22,01,32,5.40
2020,10,22,01,33,5.40
2020,10,22,01,34,5.40
2020,10,22,01,35,5.30
2020,10,22,01,36,5.30
2020,10,22,01,37,5.40
2020,10,22,01,38,5.40
2020,10,22,01,39,5.40
2020,10,22,01,40,5.40
2020,10,22,01,41,5.40
2020,10,22,01,42,5.40
2020,10,22,01,43,5.40
2020,10,22,01,44,5.50
2020,10,22,01,45,5.50
2020,10,22,01,46,5.50
2020,10,22,01,47,5.60
2020,10,22,01,48,5.60
2020,10,22,01,49,5.50
2020,10,22,01,50,5.60
2020,10,22,01,51,5.60
2020,10,22,01,52,5.60
2020,10,22,01,53,5.60
2020,10,22,01,54,5.60
2020,10,22,01,55,5.60
2020,10,22,01,56,5.60
2020,10,22,01,57,5.60
2020,10,22,01,58,5.60
2020,10,22,01,59,5.70
2020,10,22,02,00,5.70
2020,10,22,02,01,5.70
2020,10,22,02,02,5.70
2020,10,22,02,03,5.70
2020,10,22,02,04,5.70
2020,10,22,02,05,5.70
2020,10,22,02,06,5.70
2020,10,22,02,07,5.70
2020,10,22,02,08,5.70
2020,10,22,02,09,5.70
2020,10,22,02,10,5.70
2020,10,22,02,11,5.60
2020,10,22,02,12,5.60
2020,10,22,02,13,5.60
2020,10,22,02,14,5.70
2020,10,22,02,15,5.70
2020,10,22,02,16,5.70
2020,10,22,02,17,5.70
2020,10,22,02,18,5.60
2020,10,22,02,19,5.60
2020,10,22,02,20,5.60
2020,10,22,02,21,5.60
2020,10,22,02,22,5.60
2020,10,22,02,23,5.60
2020,10,22,02,24,5.60
2020,10,22,02,25,5.60
2020,10,22,02,26,5.60
2020,10,22,02,27,5.60
2020,10,22,02,28,5.60
2020,10,22,02,29,5.60
2020,10,22,02,30,5.70
2020,10,22,02,31,5.70
2020,10,22,02,32,5.70
2020,10,22,02,33,5.70
2020,10,22,02,34,5.70
2020,10,22,02,35,5.70
2020,10,22,02,36,5.70
2020,10,22,02,37,5.70
2020,10,22,02,38,5.70
2020,10,22,02,39,5.70
2020,10,22,02,40,5.80
2020,10,22,02,41,5.80
2020,10,22,02,42,5.80
2020,10,22,02,43,5.80
2020,10,22,02,44,5.90
2020,10,22,02,45,5.90
2020,10,22,02,46,6.00
2020,10,22,02,47,6.00
2020,10,22,02,48,6.00
2020,10,22,02,49,6.00
2020,10,22,02,50,6.00
2020,10,22,02,51,6.00
2020,10,22,02,52,6.00
2020,10,22,02,53,6.00
2020,10,22,02,54,6.00
2020,10,22,02,55,6.00
2020,10,22,02,56,6.00
2020,10,22,02,57,6.00
2020,10,22,02,58,6.00
2020,10,22,02,59,6.00
2020,10,22,03,00,6.00
2020,10,22,03,01,6.00
2020,10,22,03,02,5.90
2020,10,22,03,03,5.90
2020,10,22,03,04,5.90
2020,10,22,03,05,5.90
2020,10,22,03,06,5.90
2020,10,22,03,07,5.90
2020,10,22,03,08,5.90
2020,10,22,03,09,5.90
2020,10,22,03,10,5.90
2020,10,22,03,11,5.90
2020,10,22,03,12,5.90
2020,10,22,03,13,5.90
2020,10,22,03,14,5.90
2020,10,22,03,15,5.90
2020,10,22,03,16,5.90
2020,10,22,03,17,5.90
2020,10,22,03,18,5.90
2020,10,22,03,19,5.80
2020,10,22,03,20,5.80
2020,10,22,03,21,5.80
2020,10,22,03,22,5.80
2020,10,22,03,23,5.80
2020,10,22,03,24,5.80
2020,10,22,03,25,5.90
2020,10,22,03,26,5.90
2020,10,22,03,27,5.80
2020,10,22,03,28,5.80
2020,10,22,03,29,5.80
2020,10,22,03,30,5.80
2020,10,22,03,31,5.80
2020,10,22,03,32,5.80
2020,10,22,03,33,5.80
2020,10,22,03,34,5.80
2020,10,22,03,35,5.80
2020,10,22,03,36,5.80
2020,10,22,03,37,5.80
2020,10,22,03,38,5.80
2020,10,22,03,39,5.80
2020,10,22,03,40,5.80
2020,10,22,03,41,5.80
2020,10,22,03,42,5.90
2020,10,22,03,43,5.90
2020,10,22,03,44,5.90
2020,10,22,03,45,5.90
2020,10,22,03,46,5.90
2020,10,22,03,47,6.00
2020,10,22,03,48,6.00
2020,10,22,03,49,6.00
2020,10,22,03,50,6.00
2020,10,22,03,51,6.00
2020,10,22,03,52,5.90
2020,10,22,03,53,5.90
2020,10,22,03,54,6.00
2020,10,22,03,55,6.00
2020,10,22,03,56,6.00
2020,10,22,03,57,5.90
2020,10,22,03,58,5.90
2020,10,22,03,59,5.90
2020,10,22,04,00,5.90
2020,10,22,04,01,5.90
2020,10,22,04,02,5.90
2020,10,22,04,03,5.90
2020,10,22,04,04,5.90
2020,10,22,04,05,5.90
2020,10,22,04,06,5.90
2020,10,22,04,07,6.00
2020,10,22,04,08,6.00
2020,10,22,04,09,6.00
2020,10,22,04,10,6.00
2020,10,22,04,11,6.00
2020,10,22,04,12,6.00
2020,10,22,04,13,5.90
2020,10,22,04,14,5.90
2020,10,22,04,15,5.90
2020,10,22,04,16,5.90
2020,10,22,04,17,5.90
2020,10,22,04,18,5.90
2020,10,22,04,19,5.90
2020,10,22,04,20,5.90
2020,10,22,04,21,5.90
2020,10,22,04,22,5.80
2020,10,22,04,23,5.80
2020,10,22,04,24,5.80
2020,10,22,04,25,5.80
2020,10,22,04,26,5.80
2020,10,22,04,27,5.70
2020,10,22,04,28,5.70
2020,10,22,04,29,5.60
2020,10,22,04,30,5.60
2020,10,22,04,31,5.50
2020,10,22,04,32,5.50
2020,10,22,04,33,5.40
2020,10,22,04,34,5.40
2020,10,22,04,35,5.30
2020,10,22,04,36,5.30
2020,10,22,04,37,5.30
2020,10,22,04,38,5.20
2020,10,22,04,39,5.20
2020,10,22,04,40,5.10
2020,10,22,04,41,5.10
2020,10,22,04,42,5.10
2020,10,22,04,43,5.00
2020,10,22,04,44,5.00
2020,10,22,04,45,5.00
2020,10,22,04,46,5.00
2020,10,22,04,47,4.90
2020,10,22,04,48,4.90
2020,10,22,04,49,4.90
2020,10,22,04,50,4.90
2020,10,22,04,51,4.90
2020,10,22,04,52,4.90
2020,10,22,04,53,4.80
2020,10,22,04,54,4.80
2020,10,22,04,55,4.80
2020,10,22,04,56,4.70
2020,10,22,04,57,4.70
2020,10,22,04,58,4.60
2020,10,22,04,59,4.60
2020,10,22,05,00,4.50
2020,10,22,05,01,4.50
2020,10,22,05,02,4.40
2020,10,22,05,03,4.40
2020,10,22,05,04,4.40
2020,10,22,05,05,4.30
2020,10,22,05,06,4.30
2020,10,22,05,07,4.30
2020,10,22,05,08,4.30
2020,10,22,05,09,4.20
2020,10,22,05,10,4.20
2020,10,22,05,11,4.20
2020,10,22,05,12,4.20
2020,10,22,05,13,4.10
2020,10,22,05,14,4.10
2020,10,22,05,15,4.10
2020,10,22,05,16,4.10
2020,10,22,05,17,4.10
2020,10,22,05,18,4.10
2020,10,22,05,19,4.10
2020,10,22,05,20,4.10
2020,10,22,05,21,4.10
2020,10,22,05,22,4.10
2020,10,22,05,23,4.10
2020,10,22,05,24,4.00
2020,10,22,05,25,4.00
2020,10,22,05,26,3.90
2020,10,22,05,27,3.90
2020,10,22,05,28,3.90
2020,10,22,05,29,3.80
2020,10,22,05,30,3.80
2020,10,22,05,31,3.80
2020,10,22,05,32,3.80
2020,10,22,05,33,3.80
2020,10,22,05,34,3.80
2020,10,22,05,35,3.70
2020,10,22,05,36,3.70
2020,10,22,05,37,3.70
2020,10,22,05,38,3.70
2020,10,22,05,39,3.70
2020,10,22,05,40,3.70
2020,10,22,05,41,3.60
2020,10,22,05,42,3.60
2020,10,22,05,43,3.60
2020,10,22,05,44,3.50
2020,10,22,05,45,3.50
2020,10,22,05,46,3.50
2020,10,22,05,47,3.40
2020,10,22,05,48,3.40
2020,10,22,05,49,3.40
2020,10,22,05,50,3.30
2020,10,22,05,51,3.30
2020,10,22,05,52,3.20
2020,10,22,05,53,3.20
2020,10,22,05,54,3.20
2020,10,22,05,55,3.10
2020,10,22,05,56,3.10
2020,10,22,05,57,3.00
2020,10,22,05,58,3.00
2020,10,22,05,59,3.00
2020,10,22,06,00,2.90
2020,10,22,06,01,2.90
2020,10,22,06,02,2.90
2020,10,22,06,03,2.80
2020,10,22,06,04,2.80
2020,10,22,06,05,2.80
2020,10,22,06,06,2.70
2020,10,22,06,07,2.70
2020,10,22,06,08,2.70
2020,10,22,06,09,2.70
2020,10,22,06,10,2.70
2020,10,22,06,11,2.70
2020,10,22,06,12,2.60
2020,10,22,06,13,2.60
2020,10,22,06,14,2.60
2020,10,22,06,15,2.60
2020,10,22,06,16,2.60
2020,10,22,06,17,2.50
2020,10,22,06,18,2.50
2020,10,22,06,19,2.50
2020,10,22,06,20,2.50
2020,10,22,06,21,2.50
2020,10,22,06,22,2.50
2020,10,22,06,23,2.50
2020,10,22,06,24,2.40
2020,10,22,06,25,2.40
2020,10,22,06,26,2.40
2020,10,22,06,27,2.40
2020,10,22,06,28,2.40
2020,10,22,06,29,2.40
2020,10,22,06,30,2.40
2020,10,22,06,31,2.40
2020,10,22,06,32,2.40
2020,10,22,06,33,2.40
2020,10,22,06,34,2.40
2020,10,22,06,35,2.40
2020,10,22,06,36,2.40
2020,10,22,06,37,2.40
2020,10,22,06,38,2.40
2020,10,22,06,39,2.40
2020,10,22,06,40,2.40
2020,10,22,06,41,2.40
2020,10,22,06,42,2.40
2020,10,22,06,43,2.40
2020,10,22,06,44,2.40
2020,10,22,06,45,2.40
2020,10,22,06,46,2.30
2020,10,22,06,47,2.30
2020,10,22,06,48,2.30
2020,10,22,06,49,2.30
2020,10,22,06,50,2.30
2020,10,22,06,51,2.30
2020,10,22,06,52,2.20
2020,10,22,06,53,2.20
2020,10,22,06,54,2.20
2020,10,22,06,55,2.20
2020,10,22,06,56,2.20
2020,10,22,06,57,2.20
2020,10,22,06,58,2.20
2020,10,22,06,59,2.10
2020,10,22,07,00,2.10
2020,10,22,07,01,2.10
2020,10,22,07,02,2.10
2020,10,22,07,03,2.00
2020,10,22,07,04,2.00
2020,10,22,07,05,2.00
2020,10,22,07,06,2.00
2020,10,22,07,07,2.00
2020,10,22,07,08,2.00
2020,10,22,07,09,2.00
2020,10,22,07,10,1.90
2020,10,22,07,11,1.90
2020,10,22,07,12,2.00
2020,10,22,07,13,1.90
2020,10,22,07,14,1.90
2020,10,22,07,15,1.90
2020,10,22,07,16,1.90
2020,10,22,07,17,1.90
2020,10,22,07,18,1.90
2020,10,22,07,19,1.90
2020,10,22,07,20,1.90
2020,10,22,07,21,1.90
2020,10,22,07,22,1.90
2020,10,22,07,23,1.90
2020,10,22,08,48,2.00
2020,10,22,08,49,2.00
2020,10,22,08,50,2.00
2020,10,22,08,51,2.00
2020,10,22,08,52,2.00
2020,10,22,08,53,2.00
2020,10,22,08,54,2.10
2020,10,22,08,55,2.10
2020,10,22,08,56,2.20
2020,10,22,08,57,2.20
2020,10,22,08,58,2.20
2020,10,22,08,59,2.30
2020,10,22,09,00,2.30
2020,10,22,09,01,2.40
2020,10,22,09,02,2.40
2020,10,22,09,03,2.50
2020,10,22,09,04,2.50
2020,10,22,09,05,2.60
2020,10,22,09,06,2.60
2020,10,22,09,07,2.70
2020,10,22,09,08,2.70
2020,10,22,09,09,2.80
2020,10,22,09,10,2.80
2020,10,22,09,11,2.90
2020,10,22,09,12,3.00
2020,10,22,09,13,3.00
2020,10,22,09,14,3.10
2020,10,22,09,15,3.20
2020,10,22,09,16,3.30
2020,10,22,09,17,3.30
2020,10,22,09,18,3.40
2020,10,22,09,19,3.50
2020,10,22,09,20,3.50
2020,10,22,09,21,3.60
2020,10,22,09,22,3.70
2020,10,22,09,23,3.80
2020,10,22,09,24,3.90
2020,10,22,09,25,3.90
2020,10,22,09,26,4.00
2020,10,22,09,27,4.10
2020,10,22,09,28,4.10
2020,10,22,09,29,4.10
2020,10,22,09,30,4.20
2020,10,22,09,31,4.20
2020,10,22,09,32,4.30
2020,10,22,09,33,4.30
2020,10,22,09,34,4.40
2020,10,22,09,35,4.40
2020,10,22,09,36,4.50
2020,10,22,09,37,4.60
2020,10,22,09,38,4.60
2020,10,22,09,39,4.70
2020,10,22,09,40,4.70
2020,10,22,09,41,4.80
2020,10,22,09,42,4.90
2020,10,22,09,43,5.00
2020,10,22,09,44,5.00
2020,10,22,09,45,5.10
2020,10,22,09,46,5.10
2020,10,22,09,47,5.20
2020,10,22,09,48,5.30
2020,10,22,09,49,5.30
2020,10,22,09,50,5.40
2020,10,22,09,51,5.50
2020,10,22,09,52,5.60
2020,10,22,09,53,5.60
2020,10,22,09,54,5.70
2020,10,22,09,55,5.80
2020,10,22,09,56,5.80
2020,10,22,09,57,5.90
2020,10,22,09,58,5.90
2020,10,22,09,59,6.00
2020,10,22,10,00,6.00
2020,10,22,10,01,6.10
2020,10,22,10,02,6.10
2020,10,22,10,03,6.20
2020,10,22,10,04,6.20
2020,10,22,10,05,6.20
2020,10,22,10,06,6.30
2020,10,22,10,07,6.30
2020,10,22,10,08,6.30
2020,10,22,10,09,6.40
2020,10,22,10,10,6.40
2020,10,22,10,11,6.50
2020,10,22,10,12,6.50
2020,10,22,10,13,6.60
2020,10,22,10,14,6.60
2020,10,22,10,15,6.60
2020,10,22,10,16,6.70
2020,10,22,10,17,6.80
2020,10,22,10,18,6.80
2020,10,22,10,19,6.80
2020,10,22,10,20,6.80
2020,10,22,10,21,6.90
2020,10,22,10,22,6.90
2020,10,22,10,23,6.90
2020,10,22,10,24,7.00
2020,10,22,10,25,7.00
2020,10,22,10,26,7.10
2020,10,22,10,27,7.10
2020,10,22,10,28,7.20
2020,10,22,10,29,7.20
2020,10,22,10,30,7.20
2020,10,22,10,31,7.20
2020,10,22,10,32,7.20
2020,10,22,10,33,7.30
2020,10,22,10,34,7.30
2020,10,22,10,35,7.30
2020,10,22,10,36,7.30
2020,10,22,10,37,7.40
2020,10,22,10,38,7.40
2020,10,22,10,39,7.40
2020,10,22,10,40,7.40
2020,10,22,10,41,7.40
2020,10,22,10,42,7.40
2020,10,22,10,43,7.40
2020,10,22,10,44,7.30
2020,10,22,10,45,7.30
2020,10,22,10,46,7.40
2020,10,22,10,47,7.40
2020,10,22,10,48,7.40
2020,10,22,10,49,7.40
2020,10,22,10,50,7.40
2020,10,22,10,51,7.40
2020,10,22,10,52,7.40
2020,10,22,10,53,7.40
2020,10,22,10,54,7.40
2020,10,22,10,55,7.40
2020,10,22,10,56,7.40
2020,10,22,10,57,7.50
2020,10,22,10,58,7.50
2020,10,22,10,59,7.50
2020,10,22,11,00,7.50
2020,10,22,11,01,7.50
2020,10,22,11,02,7.60
2020,10,22,11,03,7.60
2020,10,22,11,04,7.60
2020,10,22,11,05,7.60
2020,10,22,11,06,7.60
2020,10,22,11,07,7.70
2020,10,22,11,08,7.70
2020,10,22,11,09,7.80
2020,10,22,11,10,7.90
2020,10,22,11,11,7.90
2020,10,22,11,12,8.00
2020,10,22,11,13,8.10
2020,10,22,11,14,8.10
2020,10,22,11,15,8.20
2020,10,22,11,16,8.20
2020,10,22,11,17,8.30
2020,10,22,11,18,8.30
2020,10,22,11,19,8.30
2020,10,22,11,20,8.30
2020,10,22,11,21,8.40
2020,10,22,11,22,8.40
2020,10,22,11,23,8.40
2020,10,22,11,24,8.50
2020,10,22,11,25,8.50
2020,10,22,11,26,8.50
2020,10,22,11,27,8.50
2020,10,22,11,28,8.50
2020,10,22,11,29,8.50
2020,10,22,11,30,8.40
2020,10,22,11,31,8.40
2020,10,22,11,32,8.40
2020,10,22,11,33,8.40
2020,10,22,11,34,8.40
2020,10,22,11,35,8.40
2020,10,22,11,36,8.30
2020,10,22,11,37,8.30
2020,10,22,11,38,8.20
2020,10,22,11,39,8.20
2020,10,22,11,40,8.20
2020,10,22,11,41,8.20
2020,10,22,11,42,8.30
2020,10,22,11,43,8.30
2020,10,22,11,44,8.30
2020,10,22,11,45,8.40
2020,10,22,11,46,8.40
2020,10,22,11,47,8.40
2020,10,22,11,48,8.40
2020,10,22,11,49,8.40
2020,10,22,11,50,8.40
2020,10,22,11,51,8.30
2020,10,22,11,52,8.40
2020,10,22,11,53,8.40
2020,10,22,11,54,8.40
2020,10,22,11,55,8.30
2020,10,22,11,56,8.30
2020,10,22,11,57,8.30
2020,10,22,11,58,8.30
2020,10,22,11,59,8.30
2020,10,22,12,00,8.40
2020,10,22,12,01,8.40
2020,10,22,12,02,8.40
2020,10,22,12,03,8.50
2020,10,22,12,04,8.60
2020,10,22,12,05,8.60
2020,10,22,12,06,8.70
2020,10,22,12,07,8.70
2020,10,22,12,08,8.80
2020,10,22,12,09,8.80
2020,10,22,12,10,8.90
2020,10,22,12,11,8.90
2020,10,22,12,12,9.00
2020,10,22,12,13,9.00
2020,10,22,12,14,9.00
2020,10,22,12,15,9.10
2020,10,22,12,16,9.10
2020,10,22,12,17,9.20
2020,10,22,12,18,9.20
2020,10,22,12,19,9.30
2020,10,22,12,20,9.30
2020,10,22,12,21,9.30
2020,10,22,12,22,9.30
2020,10,22,12,23,9.30
2020,10,22,12,24,9.30
2020,10,22,12,25,9.30
2020,10,22,12,26,9.30
2020,10,22,12,27,9.30
2020,10,22,12,28,9.30
2020,10,22,12,29,9.20
2020,10,22,12,30,9.30
2020,10,22,12,31,9.30
2020,10,22,12,32,9.20
2020,10,22,12,33,9.20
2020,10,22,12,34,9.20
2020,10,22,12,35,9.20
2020,10,22,12,36,9.20
2020,10,22,12,37,9.20
2020,10,22,12,38,9.20
2020,10,22,12,39,9.20
2020,10,22,12,40,9.20
2020,10,22,12,41,9.20
2020,10,22,12,42,9.20
2020,10,22,12,43,9.10
2020,10,22,12,44,9.10
2020,10,22,12,45,9.20
2020,10,22,12,46,9.20
2020,10,22,12,47,9.20
2020,10,22,12,48,9.20
2020,10,22,12,49,9.20
2020,10,22,12,50,9.20
2020,10,22,12,51,9.20
2020,10,22,12,52,9.30
2020,10,22,12,53,9.30
2020,10,22,12,54,9.30
2020,10,22,12,55,9.30
2020,10,22,12,56,9.30
2020,10,22,12,57,9.30
2020,10,22,12,58,9.30
2020,10,22,12,59,9.30
2020,10,22,13,00,9.30
2020,10,22,13,01,9.30
2020,10,22,13,02,9.30
2020,10,22,13,03,9.30
2020,10,22,13,04,9.30
2020,10,22,13,05,9.30
2020,10,22,13,06,9.20
2020,10,22,13,07,9.20
2020,10,22,13,08,9.10
2020,10,22,13,09,9.10
2020,10,22,13,10,9.10
2020,10,22,13,11,9.00
2020,10,22,13,12,9.00
2020,10,22,13,13,8.90
2020,10,22,13,14,9.00
2020,10,22,13,15,9.00
2020,10,22,13,16,9.10
2020,10,22,13,17,9.10
2020,10,22,13,18,9.10
2020,10,22,13,19,9.10
2020,10,22,13,20,9.10
2020,10,22,13,21,9.10
2020,10,22,13,22,9.20
2020,10,22,13,23,9.10
2020,10,22,13,24,9.20
2020,10,22,13,25,9.20
2020,10,22,13,26,9.20
2020,10,22,13,27,9.20
2020,10,22,13,28,9.20
2020,10,22,13,29,9.10
2020,10,22,13,30,9.10
2020,10,22,13,31,9.10
2020,10,22,13,32,9.10
2020,10,22,13,33,9.10
2020,10,22,13,34,9.10
2020,10,22,13,35,9.00
2020,10,22,13,36,9.00
2020,10,22,13,37,8.90
2020,10,22,13,38,8.90
2020,10,22,13,39,8.90
2020,10,22,13,40,8.90
2020,10,22,13,41,8.80
2020,10,22,13,42,8.90
2020,10,22,13,43,8.90
2020,10,22,13,44,8.90
2020,10,22,13,45,8.80
2020,10,22,13,46,8.80
2020,10,22,13,47,8.80
2020,10,22,13,48,8.80
2020,10,22,13,49,8.80
2020,10,22,13,50,8.80
2020,10,22,13,51,8.80
2020,10,22,13,52,8.90
2020,10,22,13,53,8.90
2020,10,22,13,54,8.90
2020,10,22,13,55,9.00
2020,10,22,13,56,9.00
2020,10,22,13,57,9.00
2020,10,22,13,58,9.00
2020,10,22,13,59,9.00
2020,10,22,14,00,8.90
2020,10,22,14,01,8.90
2020,10,22,14,02,8.90
2020,10,22,14,03,8.80
2020,10,22,14,04,8.80
2020,10,22,14,05,8.80
2020,10,22,14,06,8.80
2020,10,22,14,07,8.80
2020,10,22,14,08,8.80
2020,10,22,14,09,8.80
2020,10,22,14,10,8.90
2020,10,22,14,11,8.90
2020,10,22,14,12,8.90
2020,10,22,14,13,8.90
2020,10,22,14,14,8.90
2020,10,22,14,15,9.00
2020,10,22,14,16,9.00
2020,10,22,14,17,9.00
2020,10,22,14,18,9.00
2020,10,22,14,19,9.00
2020,10,22,14,20,9.00
2020,10,22,14,21,9.00
2020,10,22,14,22,9.00
2020,10,22,14,23,8.90
2020,10,22,14,24,8.90
2020,10,22,14,25,9.00
2020,10,22,14,26,9.00
2020,10,22,14,27,9.00
2020,10,22,14,28,9.10
2020,10,22,14,29,9.10
2020,10,22,14,30,9.10
2020,10,22,14,31,9.10
2020,10,22,14,32,9.10
2020,10,22,14,33,9.10
2020,10,22,14,34,9.10
2020,10,22,14,35,9.10
2020,10,22,14,36,9.10
2020,10,22,14,37,9.10
2020,10,22,14,38,9.10
2020,10,22,14,39,9.20
2020,10,22,14,40,9.20
2020,10,22,14,41,9.20
2020,10,22,14,42,9.10
2020,10,22,14,43,9.10
2020,10,22,14,44,9.10
2020,10,22,14,45,9.10
2020,10,22,14,46,9.10
2020,10,22,14,47,9.10
2020,10,22,14,48,9.00
2020,10,22,14,49,9.00
2020,10,22,14,50,9.00
2020,10,22,14,51,9.00
2020,10,22,14,52,9.00
2020,10,22,14,53,9.00
2020,10,22,14,54,9.00
2020,10,22,14,55,9.00
2020,10,22,14,56,8.90
2020,10,22,14,57,8.90
2020,10,22,14,58,8.90
2020,10,22,14,59,8.90
2020,10,22,15,00,8.90
2020,10,22,15,01,8.90
2020,10,22,15,02,8.80
2020,10,22,15,03,8.80
2020,10,22,15,04,8.80
2020,10,22,15,05,8.80
2020,10,22,15,06,8.80
2020,10,22,15,07,8.80
2020,10,22,15,08,8.80
2020,10,22,15,09,8.80
2020,10,22,15,10,8.80
2020,10,22,15,11,8.80
2020,10,22,15,12,8.80
2020,10,22,15,13,8.80
2020,10,22,15,14,8.70
2020,10,22,15,15,8.70
2020,10,22,15,16,8.70
2020,10,22,15,17,8.70
2020,10,22,15,18,8.70
2020,10,22,15,19,8.70
2020,10,22,15,20,8.70
2020,10,22,15,21,8.70
2020,10,22,15,22,8.70
2020,10,22,15,23,8.70
2020,10,22,15,24,8.60
2020,10,22,15,25,8.60
2020,10,22,15,26,8.60
2020,10,22,15,27,8.60
2020,10,22,15,28,8.60
2020,10,22,15,29,8.60
2020,10,22,15,30,8.60
2020,10,22,15,31,8.60
2020,10,22,15,32,8.60
2020,10,22,15,33,8.60
2020,10,22,15,34,8.60
2020,10,22,15,35,8.60
2020,10,22,15,36,8.60
2020,10,22,15,37,8.60
2020,10,22,15,38,8.70
2020,10,22,15,39,8.70
2020,10,22,15,40,8.70
2020,10,22,15,41,8.70
2020,10,22,15,42,8.70
2020,10,22,15,43,8.70
2020,10,22,15,44,8.70
2020,10,22,15,45,8.70
2020,10,22,15,46,8.70
2020,10,22,15,47,8.70
2020,10,22,15,48,8.70
2020,10,22,15,49,8.70
2020,10,22,15,50,8.70
2020,10,22,15,51,8.70
2020,10,22,15,52,8.70
2020,10,22,15,53,8.70
2020,10,22,15,54,8.70
2020,10,22,15,55,8.70
2020,10,22,15,56,8.70
2020,10,22,15,57,8.70
2020,10,22,15,58,8.70
2020,10,22,15,59,8.80
2020,10,22,16,00,8.80
2020,10,22,16,01,8.80
2020,10,22,16,02,8.80
2020,10,22,16,03,8.80
2020,10,22,16,04,8.80
2020,10,22,16,05,8.80
2020,10,22,16,06,8.90
2020,10,22,16,07,8.90
2020,10,22,16,08,8.90
2020,10,22,16,09,8.90
2020,10,22,16,10,8.90
2020,10,22,16,11,8.90
2020,10,22,16,12,8.90
2020,10,22,16,13,8.90
2020,10,22,16,14,8.90
2020,10,22,16,15,8.80
2020,10,22,16,16,8.80
2020,10,22,16,17,8.80
2020,10,22,16,18,8.80
2020,10,22,16,19,8.80
2020,10,22,16,20,8.80
2020,10,22,16,21,8.80
2020,10,22,16,22,8.80
2020,10,22,16,23,8.80
2020,10,22,16,24,8.80
2020,10,22,16,25,8.80
2020,10,22,16,26,8.90
2020,10,22,16,27,8.90
2020,10,22,16,28,8.90
2020,10,22,16,29,8.90
2020,10,22,16,30,8.90
2020,10,22,16,31,8.90
2020,10,22,16,32,8.90
2020,10,22,16,33,8.90
2020,10,22,16,34,8.80
2020,10,22,16,35,8.80
2020,10,22,16,36,8.80
2020,10,22,16,37,8.80
2020,10,22,16,38,8.80
2020,10,22,16,39,8.80
2020,10,22,16,40,8.80
2020,10,22,16,41,8.80
2020,10,22,16,42,8.80
2020,10,22,16,43,8.80
2020,10,22,16,44,8.80
2020,10,22,16,45,8.80
2020,10,22,16,46,8.80
2020,10,22,16,47,8.90
2020,10,22,16,48,8.80
2020,10,22,16,49,8.80
2020,10,22,16,50,8.80
2020,10,22,16,51,8.80
2020,10,22,16,52,8.80
2020,10,22,16,53,8.80
2020,10,22,16,54,8.80
2020,10,22,16,55,8.80
2020,10,22,16,56,8.80
2020,10,22,16,57,8.80
2020,10,22,16,58,8.80
2020,10,22,16,59,8.80
2020,10,22,17,00,8.80
2020,10,22,17,01,8.80
2020,10,22,17,02,8.70
2020,10,22,17,03,8.70
2020,10,22,17,04,8.70
2020,10,22,17,05,8.70
2020,10,22,17,06,8.70
2020,10,22,17,07,8.70
2020,10,22,17,08,8.70
2020,10,22,17,09,8.60
2020,10,22,17,10,8.60
2020,10,22,17,11,8.60
2020,10,22,17,12,8.60
2020,10,22,17,13,8.60
2020,10,22,17,14,8.50
2020,10,22,17,15,8.50
2020,10,22,17,16,8.50
2020,10,22,17,17,8.50
2020,10,22,17,18,8.50
2020,10,22,17,19,8.50
2020,10,22,17,20,8.40
2020,10,22,17,21,8.40
2020,10,22,17,22,8.40
2020,10,22,17,23,8.40
2020,10,22,17,24,8.40
2020,10,22,17,25,8.40
2020,10,22,17,26,8.40
2020,10,22,17,27,8.30
2020,10,22,17,28,8.30
2020,10,22,17,29,8.30
2020,10,22,17,30,8.30
2020,10,22,17,31,8.30
2020,10,22,17,32,8.30
2020,10,22,17,33,8.20
2020,10,22,17,34,8.20
2020,10,22,17,35,8.20
2020,10,22,17,36,8.20
2020,10,22,17,37,8.20
2020,10,22,17,38,8.20
2020,10,22,17,39,8.10
2020,10,22,17,40,8.10
2020,10,22,17,41,8.10
2020,10,22,17,42,8.10
2020,10,22,17,43,8.00
2020,10,22,17,44,8.00
2020,10,22,17,45,8.00
2020,10,22,17,46,7.90
2020,10,22,17,47,7.90
2020,10,22,17,48,7.90
2020,10,22,17,49,7.80
2020,10,22,17,50,7.80
2020,10,22,17,51,7.80
2020,10,22,17,52,7.80
2020,10,22,17,53,7.70
2020,10,22,17,54,7.70
2020,10,22,17,55,7.70
2020,10,22,17,56,7.70
2020,10,22,17,57,7.70
2020,10,22,17,58,7.70
2020,10,22,17,59,7.70
2020,10,22,18,00,7.70
2020,10,22,18,01,7.60
2020,10,22,18,02,7.60
2020,10,22,18,03,7.60
2020,10,22,18,04,7.60
2020,10,22,18,05,7.50
2020,10,22,18,06,7.50
2020,10,22,18,07,7.40
2020,10,22,18,08,7.40
2020,10,22,18,09,7.40
2020,10,22,18,10,7.30
2020,10,22,18,11,7.30
2020,10,22,18,12,7.30
2020,10,22,18,13,7.30
2020,10,22,18,14,7.30
2020,10,22,18,15,7.30
2020,10,22,18,16,7.30
2020,10,22,18,17,7.20
2020,10,22,18,18,7.20
2020,10,22,18,19,7.20
2020,10,22,18,20,7.20
2020,10,22,18,21,7.20
2020,10,22,18,22,7.20
2020,10,22,18,23,7.10
2020,10,22,18,24,7.10
2020,10,22,18,25,7.10
2020,10,22,18,26,7.10
2020,10,22,18,27,7.10
2020,10,22,18,28,7.00
2020,10,22,18,29,7.00
2020,10,22,18,30,7.00
2020,10,22,18,31,6.90
2020,10,22,18,32,6.90
2020,10,22,18,33,6.90
2020,10,22,18,34,6.90
2020,10,22,18,35,6.90
2020,10,22,18,36,6.90
2020,10,22,18,37,6.90
2020,10,22,18,38,6.90
2020,10,22,18,39,6.90
2020,10,22,18,40,6.90
2020,10,22,18,41,6.80
2020,10,22,18,42,6.80
2020,10,22,18,43,6.80
2020,10,22,18,44,6.80
2020,10,22,18,45,6.80
2020,10,22,18,46,6.80
2020,10,22,18,47,6.80
2020,10,22,18,48,6.80
2020,10,22,18,49,6.80
2020,10,22,18,50,6.80
2020,10,22,18,51,6.80
2020,10,22,18,52,6.80
2020,10,22,18,53,6.80
2020,10,22,18,54,6.70
2020,10,22,18,55,6.70
2020,10,22,18,56,6.70
2020,10,22,18,57,6.70
2020,10,22,18,58,6.70
2020,10,22,18,59,6.70
2020,10,22,19,00,6.70
2020,10,22,19,01,6.60
2020,10,22,19,02,6.60
2020,10,22,19,03,6.60
2020,10,22,19,04,6.60
2020,10,22,19,05,6.60
2020,10,22,19,06,6.50
2020,10,22,19,07,6.50
2020,10,22,19,08,6.50
2020,10,22,19,09,6.50
2020,10,22,19,10,6.50
2020,10,22,19,11,6.50
2020,10,22,19,12,6.50
2020,10,22,19,13,6.50
2020,10,22,19,14,6.50
2020,10,22,19,15,6.50
2020,10,22,19,16,6.50
2020,10,22,19,17,6.40
2020,10,22,19,18,6.40
2020,10,22,19,19,6.40
2020,10,22,19,20,6.40
2020,10,22,19,21,6.40
2020,10,22,19,22,6.40
2020,10,22,19,23,6.40
2020,10,22,19,24,6.30
2020,10,22,19,25,6.30
2020,10,22,19,26,6.30
2020,10,22,19,27,6.30
2020,10,22,19,28,6.30
2020,10,22,19,29,6.30
2020,10,22,19,30,6.30